Weather History for KW43 - September, 2013

Change the Weather History Date:

Wednesday, September 4, 2013

  Actual Average (KRAP) Record (KRAP)
Temperature  
Mean Temperature 76 °F 66 °F  
Max Temperature 91 °F 81 °F 104 °F (1960)
Min Temperature 60 °F 51 °F 34 °F (1962)
Degree Days  
Heating Degree Days 0 3  
Month to date heating degree days 10  
Since 1 July heating degree days 47  
Cooling Degree Days 10 4  
Month to date cooling degree days 16  
Year to date cooling degree days 588  
Growing Degree Days 26 (Base 50)    
Moisture  
Dew Point 58 °F    
Average Humidity 58    
Maximum Humidity 88    
Minimum Humidity 26    
Precipitation  
Precipitation 0.00 in 0.04 in 1.11 in (1971)
Month to date precipitation 0.17  
Year to date precipitation 12.80  
Snow  
Snow 0.00 in 0.00 in - ()
Month to date snowfall 0.0  
Since 1 July snowfall 0.0  
Since 1 September snowfall 0.0  
Snow Depth -    
Sea Level Pressure  
Sea Level Pressure 30.15 in    
Wind  
Wind Speed 3 mph (East)    
Max Wind Speed 25 mph    
Max Gust Speed 29 mph    
Visibility 10 miles    
Events Rain , Thunderstorm    
T = Trace of Precipitation, MM = Missing Value Source: NWS Daily Summary

Daily Weather History Graph

Daily Weather History Graph

Search for Another Location

Airport or City:

Trip Planner

Search our weather history database for the weather conditions in past years. The results will help you decide how hot, cold, wet, or windy it might be!

Date:

Astronomy

Sep. 04, 2013 Rise Set
Actual Time 6:24 AM MDT 7:28 PM MDT
Civil Twilight 5:54 AM MDT 7:58 PM MDT
Nautical Twilight 5:18 AM MDT 8:34 PM MDT
Astronomical Twilight 4:41 AM MDT 9:11 PM MDT
Moon 5:39 AM MDT (9/4) 6:48 PM MDT (9/4)
Length of Visible Light 14h 04m
Length of Day
13h 04m
Waning Crescent, 1% of the Moon is Illuminated
Sep 4
Waning Crescent
Sep 5
New
Sep 12
First Quarter
Sep 19
Full
Sep 26
Last Quarter

Hourly Weather History & Observations

Time (MDT) Temp. Heat Index Dew Point Humidity Pressure Visibility Wind Dir Wind Speed Gust Speed Precip Events Conditions
12:15 AM 69.8 °F - 57.2 °F 64% 30.11 in 10.0 mi Calm Calm - N/A   Clear
12:35 AM 68.0 °F - 57.2 °F 68% 30.12 in 10.0 mi North - - N/A   Clear
12:55 AM 69.8 °F - 57.2 °F 64% 30.12 in 10.0 mi North - - N/A   Clear
1:15 AM 68.0 °F - 57.2 °F 68% 30.12 in 10.0 mi Calm Calm - N/A   Clear
1:35 AM 68.0 °F - 57.2 °F 68% 30.12 in 10.0 mi Calm Calm - N/A   Clear
1:55 AM 68.0 °F - 57.2 °F 68% 30.12 in 10.0 mi North - - N/A   Clear
2:15 AM 68.0 °F - 57.2 °F 68% 30.12 in 10.0 mi Calm Calm - N/A   Clear
2:35 AM 64.4 °F - 57.2 °F 77% 30.12 in 10.0 mi Calm Calm - N/A   Clear
2:55 AM 66.2 °F - 57.2 °F 73% 30.12 in 10.0 mi Calm Calm - N/A   Clear
3:15 AM 64.4 °F - 57.2 °F 77% 30.13 in 10.0 mi Calm Calm - N/A   Clear
3:35 AM 64.4 °F - 57.2 °F 77% 30.13 in 10.0 mi Calm Calm - N/A   Clear
3:55 AM 62.6 °F - 55.4 °F 77% 30.13 in 10.0 mi North - - N/A   Clear
4:15 AM 62.6 °F - 57.2 °F 82% 30.14 in 10.0 mi North - - N/A   Clear
4:35 AM 62.6 °F - 55.4 °F 77% 30.14 in 10.0 mi North - - N/A   Clear
4:55 AM 62.6 °F - 55.4 °F 77% 30.15 in 10.0 mi North - - N/A   Clear
5:15 AM 60.8 °F - 55.4 °F 82% 30.15 in 10.0 mi South 3.5 mph - N/A   Clear
5:35 AM 60.8 °F - 55.4 °F 82% 30.15 in 10.0 mi Calm Calm - N/A   Clear
5:55 AM 60.8 °F - 55.4 °F 82% 30.16 in 10.0 mi Calm Calm - N/A   Clear
6:15 AM 60.8 °F - 55.4 °F 82% 30.16 in 10.0 mi Calm Calm - N/A   Clear
6:35 AM 60.8 °F - 55.4 °F 82% 30.16 in 10.0 mi Calm Calm - N/A   Clear
6:55 AM 62.6 °F - 57.2 °F 82% 30.17 in 10.0 mi Calm Calm - N/A   Clear
7:15 AM 64.4 °F - 57.2 °F 77% 30.16 in 10.0 mi Calm Calm - N/A   Clear
7:35 AM 64.4 °F - 59.0 °F 83% 30.17 in 10.0 mi North - - N/A   Clear
7:55 AM 64.4 °F - 59.0 °F 83% 30.17 in 10.0 mi North - - N/A   Clear
8:15 AM 64.4 °F - 59.0 °F 83% 30.17 in 10.0 mi North - - N/A   Clear
8:35 AM 68.0 °F - 59.0 °F 73% 30.18 in 10.0 mi Calm Calm - N/A   Clear
8:55 AM 68.0 °F - 59.0 °F 73% 30.18 in 10.0 mi Calm Calm - N/A   Clear
9:15 AM 71.6 °F - 60.8 °F 69% 30.18 in 10.0 mi Calm Calm - N/A   Clear
9:35 AM 73.4 °F - 60.8 °F 65% 30.18 in 10.0 mi North - - N/A   Clear
9:55 AM 77.0 °F - 60.8 °F 57% 30.18 in 10.0 mi Calm Calm - N/A   Clear
10:15 AM 78.8 °F - 60.8 °F 54% 30.18 in 10.0 mi Calm Calm - N/A   Clear
10:35 AM 80.6 °F 81.5 °F 60.8 °F 51% 30.18 in 10.0 mi Calm Calm - N/A   Clear
10:55 AM 82.4 °F 82.5 °F 59.0 °F 45% 30.19 in 10.0 mi Calm Calm - N/A   Clear
11:15 AM 82.4 °F 82.9 °F 60.8 °F 48% 30.19 in 10.0 mi North 5.8 mph - N/A   Clear
11:35 AM 84.2 °F 83.8 °F 59.0 °F 42% 30.18 in 10.0 mi North - - N/A   Clear
11:55 AM 86.0 °F 85.4 °F 59.0 °F 40% 30.18 in 10.0 mi East 3.5 mph - N/A   Clear
12:15 PM 86.0 °F 84.9 °F 57.2 °F 37% 30.18 in 10.0 mi North 3.5 mph - N/A   Clear
12:35 PM 87.8 °F 86.1 °F 55.4 °F 33% 30.16 in 10.0 mi Calm Calm - N/A   Clear
12:55 PM 87.8 °F 86.1 °F 55.4 °F 33% 30.16 in 10.0 mi Calm Calm - N/A   Clear
1:15 PM 87.8 °F 86.1 °F 55.4 °F 33% 30.16 in 10.0 mi Calm Calm - N/A   Clear
1:35 PM 89.6 °F 87.3 °F 53.6 °F 29% 30.16 in 10.0 mi South 3.5 mph - N/A   Clear
1:55 PM 91.4 °F 89.1 °F 53.6 °F 28% 30.15 in 10.0 mi SE 3.5 mph - N/A   Clear
2:15 PM 91.4 °F - 51.8 °F 26% 30.15 in 10.0 mi WSW 11.5 mph - N/A   Clear
2:35 PM 91.4 °F - 51.8 °F 26% 30.14 in 10.0 mi WSW 3.5 mph - N/A   Clear
2:55 PM 91.4 °F 89.4 °F 55.4 °F 29% 30.14 in 10.0 mi East 5.8 mph - N/A   Scattered Clouds
3:15 PM 87.8 °F 86.5 °F 57.2 °F 35% 30.14 in 10.0 mi NE 5.8 mph - N/A   Mostly Cloudy
3:35 PM 87.8 °F 87.1 °F 59.0 °F 38% 30.14 in 10.0 mi NNE 6.9 mph - N/A   Overcast
3:55 PM 87.8 °F 87.1 °F 59.0 °F 38% 30.14 in 10.0 mi North - - N/A   Scattered Clouds
4:15 PM 89.6 °F 88.9 °F 59.0 °F 36% 30.14 in 10.0 mi East 15.0 mph 18.4 mph N/A   Clear
4:35 PM 87.8 °F 87.1 °F 59.0 °F 38% 30.14 in 10.0 mi North - - N/A   Clear
4:55 PM 86.0 °F 85.4 °F 59.0 °F 40% 30.12 in 10.0 mi North - - N/A   Clear
5:15 PM 86.0 °F 85.4 °F 59.0 °F 40% 30.12 in 10.0 mi North - - N/A   Clear
5:35 PM 87.8 °F 87.6 °F 60.8 °F 40% 30.12 in 10.0 mi East 17.3 mph - N/A   Clear
5:55 PM 86.0 °F 85.4 °F 59.0 °F 40% 30.12 in 10.0 mi North - - N/A   Clear
6:15 PM 86.0 °F 86.1 °F 60.8 °F 43% 30.12 in 10.0 mi East 9.2 mph - N/A   Clear
6:35 PM 84.2 °F 83.8 °F 59.0 °F 42% 30.12 in 10.0 mi East 6.9 mph - N/A   Clear
6:55 PM 82.4 °F 82.5 °F 59.0 °F 45% 30.12 in 10.0 mi East 8.1 mph - N/A   Clear
7:15 PM 80.6 °F 81.1 °F 59.0 °F 48% 30.12 in 10.0 mi ESE 11.5 mph 16.1 mph N/A   Clear
7:35 PM 80.6 °F 81.1 °F 59.0 °F 48% 30.12 in 10.0 mi North - - N/A   Clear
7:55 PM 80.6 °F 81.1 °F 59.0 °F 48% 30.13 in 10.0 mi East 13.8 mph - N/A   Clear
8:15 PM 78.8 °F - 59.0 °F 51% 30.14 in 10.0 mi East 16.1 mph - N/A   Clear
8:35 PM 78.8 °F - 59.0 °F 51% 30.14 in 10.0 mi North - - N/A   Clear
8:55 PM 78.8 °F - 59.0 °F 51% 30.14 in 10.0 mi East 12.7 mph 21.9 mph N/A   Clear
9:15 PM 77.0 °F - 59.0 °F 54% 30.15 in 10.0 mi ESE 10.4 mph 16.1 mph N/A   Clear
9:35 PM 77.0 °F - 59.0 °F 54% 30.15 in 10.0 mi East 9.2 mph - N/A   Scattered Clouds
9:55 PM 75.2 °F - 59.0 °F 57% 30.16 in 10.0 mi Calm Calm - N/A   Clear
10:15 PM 75.2 °F - 59.0 °F 57% 30.15 in 10.0 mi North - - N/A   Scattered Clouds
10:35 PM 75.2 °F - 60.8 °F 61% 30.16 in 10.0 mi North - - N/A Thunderstorm Thunderstorm
10:55 PM 69.8 °F - 62.6 °F 78% 30.20 in 2.5 mi SSE 25.3 mph 28.8 mph N/A Rain , Thunderstorm Heavy Thunderstorms and Rain
11:15 PM 66.2 °F - 62.6 °F 88% 30.17 in 10.0 mi SSE 16.1 mph - N/A Thunderstorm Mostly Cloudy
11:35 PM 68.0 °F - 60.8 °F 78% 30.16 in 10.0 mi North - - N/A Thunderstorm Thunderstorm
11:55 PM 69.8 °F - 59.0 °F 68% 30.14 in 10.0 mi SE 9.2 mph - N/A   Scattered Clouds